This is the latest recevied weather packets stored in our database for station/object CE1RLP-34. If no packets are shown the sender has not sent any weather packets the latest 10 day(s).
| Time | Temp. | Humidity | Pressure | Rain* | Wind** | Luminosity | Snow |
|---|---|---|---|---|---|---|---|
| 1777413900 | 20.56° C | 8% | 1081 hPa | - | - | - | - |
| 1777412997 | 21.67° C | 7% | 1081 hPa | - | - | - | - |
| 1777412097 | 22.78° C | 6% | 1080.9 hPa | - | - | - | - |
| 1777411195 | 22.78° C | 6% | 1081 hPa | - | - | - | - |
| 1777410295 | 24.44° C | 5% | 1080.9 hPa | - | - | - | - |
| 1777409392 | 25.56° C | 4% | 1081 hPa | - | - | - | - |
| 1777408492 | 26.11° C | 4% | 1081.1 hPa | - | - | - | - |
| 1777407590 | 27.22° C | 4% | 1081 hPa | - | - | - | - |
| 1777406689 | 27.22° C | 4% | 1081 hPa | - | - | - | - |
| 1777405789 | 26.67° C | 4% | 1081.2 hPa | - | - | - | - |
| 1777404887 | 26.67° C | 4% | 1081.2 hPa | - | - | - | - |
| 1777403985 | 26.67° C | 4% | 1081.2 hPa | - | - | - | - |
| 1777403084 | 26.67° C | 4% | 1081.3 hPa | - | - | - | - |
| 1777402182 | 26.67° C | 4% | 1081.3 hPa | - | - | - | - |
| 1777401282 | 26.67° C | 4% | 1081.5 hPa | - | - | - | - |
| 1777400380 | 25.56° C | 5% | 1081.5 hPa | - | - | - | - |
| 1777398607 | 25° C | 5% | 1081.6 hPa | - | - | - | - |
| 1777397706 | 23.89° C | 5% | 1081.4 hPa | - | - | - | - |
| 1777396804 | 24.44° C | 4% | 1081.9 hPa | - | - | - | - |
| 1777395904 | 23.89° C | 5% | 1081.9 hPa | - | - | - | - |
| 1777395001 | 23.89° C | 5% | 1082.1 hPa | - | - | - | - |
| 1777394102 | 23.89° C | 4% | 1082.3 hPa | - | - | - | - |
| 1777393199 | 23.33° C | 4% | 1082.3 hPa | - | - | - | - |
| 1777392299 | 22.78° C | 3% | 1082.6 hPa | - | - | - | - |
| 1777391396 | 22.22° C | 4% | 1082.6 hPa | - | - | - | - |
* Rain since midnight (hover to see other rain measurements)
** Current wind speed in m/s (hover to see current wind gust speed)